Change the Weather History Date:

Saturday, January 19, 2013

  Actual Average Record
Temperature  
Mean Temperature 42 °F -  
Max Temperature 55 °F 32 °F 60 °F (1952)
Min Temperature 26 °F 13 °F -21 °F (1985)
Degree Days  
Heating Degree Days 24    
Moisture  
Dew Point 28 °F    
Average Humidity 60    
Maximum Humidity 81    
Minimum Humidity 36    
Precipitation  
Precipitation 0.00 in - - ()
Sea Level Pressure  
Sea Level Pressure 29.98 in    
Wind  
Wind Speed 14 mph (WSW)    
Max Wind Speed 30 mph    
Max Gust Speed 36 mph    
Visibility 10 miles    
Events      
Averages and records for this station are not official NWS values.
T = Trace of Precipitation, MM = Missing Value Source: NWS Daily Summary

Daily Weather History Graph

Daily Weather History Graph

Search for Another Location

Airport or City:

Trip Planner

Search our weather history database for the weather conditions in past years. The results will help you decide how hot, cold, wet, or windy it might be!

Date:

Astronomy

Jan. 19, 2013 Rise Set
Actual Time 7:31 AM CST 5:13 PM CST
Civil Twilight 7:01 AM CST 5:43 PM CST
Nautical Twilight 6:28 AM CST 6:17 PM CST
Astronomical Twilight 5:55 AM CST 6:49 PM CST
Moon 11:40 AM CST (1/19) 1:05 AM CST (1/19)
Length of Visible Light 10h 42m
Length of Day
9h 42m
First Quarter, 57% of the Moon is Illuminated
Jan 19
First Quarter
Jan 26
Full
Feb 3
Last Quarter
Feb 10
New
Feb 17
First Quarter

Hourly Weather History & Observations

Time (CST) Temp. Windchill Dew Point Humidity Pressure Visibility Wind Dir Wind Speed Gust Speed Precip Events Conditions
12:15 AM 39.2 °F 32.0 °F 30.2 °F 70% 29.95 in 10.0 mi SSW 11.5 mph - N/A   Clear
12:35 AM 39.2 °F 31.6 °F 30.2 °F 70% 29.95 in 10.0 mi SSW 12.7 mph - N/A   Clear
12:55 AM 39.2 °F 32.0 °F 30.2 °F 70% 29.95 in 10.0 mi SSW 11.5 mph - N/A   Clear
1:15 AM 39.2 °F 32.0 °F 30.2 °F 70% 29.94 in 10.0 mi South 11.5 mph - N/A   Clear
1:35 AM 39.2 °F 32.0 °F 30.2 °F 70% 29.95 in 10.0 mi South 11.5 mph - N/A   Clear
1:55 AM 39.2 °F 31.6 °F 30.2 °F 70% 29.94 in 10.0 mi South 12.7 mph - N/A   Clear
2:15 AM 39.2 °F 31.2 °F 30.2 °F 70% 29.94 in 10.0 mi SSW 13.8 mph - N/A   Clear
2:35 AM 39.2 °F 31.2 °F 30.2 °F 70% 29.94 in 10.0 mi SSW 13.8 mph - N/A   Clear
2:55 AM 39.2 °F 32.0 °F 30.2 °F 70% 29.94 in 10.0 mi SSW 11.5 mph - N/A   Clear
3:15 AM 39.2 °F 31.6 °F 30.2 °F 70% 29.93 in 10.0 mi SSW 12.7 mph - N/A   Clear
3:35 AM 37.4 °F 28.9 °F 30.2 °F 75% 29.92 in 10.0 mi South 13.8 mph - N/A   Clear
3:55 AM 37.4 °F 29.3 °F 30.2 °F 75% 29.92 in 10.0 mi SSW 12.7 mph - N/A   Clear
4:15 AM 37.4 °F 29.8 °F 30.2 °F 75% 29.91 in 10.0 mi SSW 11.5 mph - N/A   Clear
4:35 AM 37.4 °F 29.3 °F 30.2 °F 75% 29.91 in 10.0 mi SSW 12.7 mph - N/A   Clear
4:55 AM 37.4 °F 28.9 °F 30.2 °F 75% 29.90 in 10.0 mi South 13.8 mph - N/A   Clear
5:15 AM 37.4 °F 29.3 °F 30.2 °F 75% 29.89 in 10.0 mi SSW 12.7 mph - N/A   Clear
5:35 AM 37.4 °F 29.3 °F 30.2 °F 75% 29.89 in 10.0 mi SSW 12.7 mph - N/A   Clear
6:35 AM 37.4 °F 29.3 °F 30.2 °F 75% 29.89 in 10.0 mi South 12.7 mph - N/A   Clear
7:15 AM 37.4 °F 29.3 °F 30.2 °F 75% 29.88 in 10.0 mi SSW 12.7 mph - N/A   Clear
7:55 AM 37.4 °F 28.9 °F 30.2 °F 75% 29.90 in 10.0 mi SSW 13.8 mph - N/A   Clear
8:15 AM 37.4 °F 28.5 °F 32.0 °F 81% 29.89 in 10.0 mi SSW 15.0 mph 19.6 mph N/A   Clear
8:35 AM 39.2 °F 30.8 °F 32.0 °F 75% 29.89 in 10.0 mi SSW 15.0 mph 23.0 mph N/A   Clear
9:35 AM 42.8 °F 35.8 °F 32.0 °F 66% 29.91 in 10.0 mi SW 13.8 mph - N/A   Clear
9:55 AM 42.8 °F 35.4 °F 32.0 °F 66% 29.91 in 10.0 mi SW 15.0 mph 20.7 mph N/A   Clear
10:15 AM 46.4 °F 39.5 °F 32.0 °F 57% 29.93 in 10.0 mi West 17.3 mph 23.0 mph N/A   Clear
10:35 AM 44.6 °F 38.4 °F 32.0 °F 61% 29.93 in 10.0 mi WSW 12.7 mph 16.1 mph N/A   Clear
10:55 AM 44.6 °F 37.4 °F 32.0 °F 61% 29.93 in 10.0 mi WSW 16.1 mph 21.9 mph N/A   Clear
11:15 AM 46.4 °F 40.1 °F 32.0 °F 57% 29.93 in 10.0 mi WSW 15.0 mph 20.7 mph N/A   Clear
11:35 AM 46.4 °F 40.1 °F 32.0 °F 57% 29.92 in 10.0 mi WSW 15.0 mph 20.7 mph N/A   Clear
11:55 AM 48.2 °F - 32.0 °F 54% 29.91 in 10.0 mi WSW 13.8 mph 24.2 mph N/A   Clear
12:15 PM 50.0 °F - 32.0 °F 50% 29.90 in 10.0 mi West 15.0 mph - N/A   Clear
12:35 PM 50.0 °F - 32.0 °F 50% 29.89 in 10.0 mi WSW 16.1 mph - N/A   Clear
12:55 PM 51.8 °F - 32.0 °F 47% 29.89 in 10.0 mi WSW 15.0 mph 24.2 mph N/A   Clear
1:15 PM 53.6 °F - 30.2 °F 41% 29.88 in 10.0 mi West 17.3 mph - N/A   Clear
1:55 PM 55.4 °F - 28.4 °F 36% 29.88 in 10.0 mi West 20.7 mph 26.5 mph N/A   Clear
2:15 PM 55.4 °F - 28.4 °F 36% 29.89 in 10.0 mi West 18.4 mph 26.5 mph N/A   Clear
2:55 PM 53.6 °F - 28.4 °F 38% 29.91 in 10.0 mi West 23.0 mph 32.2 mph N/A   Clear
3:15 PM 53.6 °F - 28.4 °F 38% 29.91 in 10.0 mi West 19.6 mph 25.3 mph N/A   Clear
3:35 PM 53.6 °F - 28.4 °F 38% 29.92 in 10.0 mi West 23.0 mph - N/A   Clear
3:55 PM 53.6 °F - 30.2 °F 41% 29.93 in 10.0 mi West 16.1 mph 24.2 mph N/A   Clear
4:15 PM 51.8 °F - 30.2 °F 44% 29.95 in 10.0 mi WNW 11.5 mph - N/A   Clear
4:35 PM 50.0 °F - 30.2 °F 47% 29.97 in 10.0 mi West 13.8 mph - N/A   Clear
4:55 PM 48.2 °F - 30.2 °F 50% 29.98 in 10.0 mi West 11.5 mph - N/A   Clear
5:15 PM 44.6 °F 38.8 °F 30.2 °F 57% 30.00 in 10.0 mi WNW 11.5 mph - N/A   Clear
5:35 PM 42.8 °F 36.6 °F 28.4 °F 57% 30.01 in 10.0 mi WNW 11.5 mph - N/A   Clear
5:55 PM 42.8 °F 36.2 °F 28.4 °F 57% 30.03 in 10.0 mi NW 12.7 mph - N/A   Clear
6:15 PM 44.6 °F 36.9 °F 30.2 °F 57% 30.04 in 10.0 mi NW 18.4 mph 23.0 mph N/A   Clear
6:35 PM 42.8 °F 36.6 °F 32.0 °F 66% 30.05 in 10.0 mi WNW 11.5 mph - N/A   Clear
6:55 PM 39.2 °F 33.0 °F 30.2 °F 70% 30.06 in 10.0 mi West 9.2 mph - N/A   Clear
7:15 PM 39.2 °F 32.0 °F 30.2 °F 70% 30.07 in 10.0 mi West 11.5 mph 21.9 mph N/A   Clear
7:35 PM 41.0 °F 32.8 °F 30.2 °F 65% 30.08 in 10.0 mi WNW 16.1 mph 23.0 mph N/A   Clear
7:55 PM 41.0 °F 33.9 °F 32.0 °F 70% 30.09 in 10.0 mi WNW 12.7 mph 19.6 mph N/A   Clear
8:15 PM 41.0 °F 31.6 °F 30.2 °F 65% 30.10 in 10.0 mi WNW 20.7 mph 24.2 mph N/A   Clear
8:35 PM 41.0 °F 31.6 °F 28.4 °F 61% 30.11 in 10.0 mi NW 20.7 mph 33.4 mph N/A   Clear
8:55 PM 39.2 °F 28.0 °F 26.6 °F 61% 30.12 in 10.0 mi NW 26.5 mph 33.4 mph N/A   Clear
9:15 PM 37.4 °F 26.4 °F 26.6 °F 65% 30.13 in 10.0 mi NW 23.0 mph 29.9 mph N/A   Clear
9:35 PM 37.4 °F 26.6 °F 23.0 °F 56% 30.15 in 10.0 mi WNW 21.9 mph 29.9 mph N/A   Clear
9:55 PM 35.6 °F 23.2 °F 15.8 °F 44% 30.16 in 10.0 mi WNW 26.5 mph 35.7 mph N/A   Clear
10:15 PM 33.8 °F 20.1 °F 12.2 °F 41% 30.17 in 10.0 mi WNW 29.9 mph 34.5 mph N/A   Clear
10:35 PM 32.0 °F 18.4 °F 12.2 °F 44% 30.19 in 10.0 mi NW 26.5 mph 34.5 mph N/A   Clear
10:55 PM 32.0 °F 17.9 °F 8.6 °F 38% 30.20 in 10.0 mi WNW 28.8 mph 35.7 mph N/A   Clear
11:15 PM 28.4 °F 14.1 °F 10.4 °F 47% 30.21 in 10.0 mi WNW 24.2 mph - N/A   Clear
11:35 PM 28.4 °F 16.6 °F 14.0 °F 55% 30.22 in 10.0 mi NW 16.1 mph 26.5 mph N/A   Clear
11:55 PM 26.6 °F 12.7 °F 15.8 °F 64% 30.23 in 10.0 mi NW 20.7 mph 27.6 mph N/A   Clear